CAPE
925 771 898 753 620 498 459 390 330 315 134 259 456 388 499 663 870 642 663 550 606 497 588 927 853 801 839 841 1076 1065 1057 1075 1087 1074 1070 906 727 588 516 566 636 667
1058 913 802 709 666 558 442 385 287 266 267 75 41 357 561 752 859 673 635 577 471 462 713 919 957 868 898 829 761 913 945 988 993 976 1021 917 695 635 845 703 663 647
984 1035 874 868 767 645 475 377 408 357 299 130 321 521 654 733 726 622 555 374 432 471 576 741 875 881 949 914 786 778 825 909 998 1016 922 827 703 811 904 873 803 612
942 1015 925 903 831 702 520 459 464 251 232 265 440 583 680 581 533 408 352 445 261 352 381 425 577 623 591 840 925 873 710 674 721 842 900 773 835 784 1015 965 711 698
954 986 928 872 807 710 636 691 402 89 50 386 661 567 535 497 430 318 380 268 250 243 250 238 302 430 592 796 714 867 925 845 832 877 914 828 886 801 985 901 744 534
950 910 865 751 622 558 580 427 336 263 261 485 498 470 501 493 339 316 257 226 170 87 183 61 86 324 530 506 497 733 740 755 695 893 889 745 814 837 966 822 765 498
734 779 792 650 546 452 450 335 368 475 500 424 335 259 313 344 285 299 257 226 189 97 101 72 11 37 258 279 372 499 416 512 460 682 820 778 702 887 773 876 872 840
740 775 798 620 406 475 520 629 569 570 450 321 254 187 265 310 291 228 263 243 229 207 193 61 46 64 41 42 239 58 60 513 524 482 538 650 516 564 674 634 1018 969
700 645 801 505 464 560 708 659 465 364 301 253 221 144 205 294 220 152 186 27 24 200 108 23 35 18 21 50 26 54 77 364 350 413 358 232 305 505 633 806 751 752
569 588 587 527 447 562 530 408 301 326 249 220 120 140 157 184 152 105 21 1 5 174 20 7 1 0 14 26 12 29 18 25 28 19 1 2 150 151 216 573 412 439
562 446 488 564 466 425 503 372 314 286 221 132 128 142 157 89 90 71 41 18 21 4 0 0 0 0 0 1 7 18 36 0 2 1 0 0 21 0 214 541 591 389
616 415 438 328 281 428 487 430 354 230 132 116 143 125 107 77 74 73 18 1 1 0 0 0 0 0 0 0 0 0 3 28 2 0 0 0 0 53 439 564 567 440
517 336 330 211 281 373 420 467 455 278 161 167 129 126 96 78 70 82 80 0 0 0 0 0 0 0 0 0 0 0 0 0 0 0 0 0 0 304 464 480 438 447
448 356 220 64 350 602 480 487 385 249 206 198 179 149 71 1 0 0 0 0 0 0 0 0 0 0 0 0 0 0 0 0 0 0 0 0 78 357 496 504 494 461
482 265 80 158 465 555 439 428 346 244 220 214 168 53 0 0 0 0 0 0 0 0 0 0 0 0 0 0 0 0 0 0 0 0 0 0 42 260 361 397 430 457
280 172 61 30 409 377 463 393 360 232 177 150 111 0 0 0 0 0 0 0 0 0 0 0 0 0 0 0 0 0 0 0 0 0 0 22 0 152 241 181 290 344
274 150 108 59 206 13 372 341 128 154 88 93 1 0 0 0 0 0 0 0 0 0 0 0 0 0 0 0 0 0 0 0 0 0 0 0 0 0 150 262 90 195
231 79 46 97 112 137 105 151 71 76 79 33 0 0 0 0 0 0 0 0 0 0 0 0 0 0 0 0 0 0 0 0 0 0 0 0 0 3 11 113 0 0
86 66 66 117 131 94 60 80 54 16 5 0 0 0 0 0 0 0 0 0 0 0 0 0 0 0 0 0 0 0 0 0 0 0 0 0 0 19 59 20 0 0
54 59 109 126 88 64 93 47 44 33 56 0 0 0 0 0 0 0 0 0 0 0 0 0 0 0 0 0 0 0 0 0 0 0 6 0 4 18 8 0 0 0
41 62 51 117 156 114 48 56 43 71 73 0 0 0 0 0 0 0 0 0 0 0 0 0 0 0 0 0 0 0 0 3 6 1 20 0 0 24 18 15 0 0
22 32 37 33 32 62 27 15 62 76 59 16 0 0 0 0 0 0 0 0 0 0 0 0 0 0 0 0 0 0 2 8 10 4 70 31 3 34 25 21 34 27
33 67 11 50 61 81 13 7 49 0 0 0 0 0 0 0 0 0 0 0 2 2 0 0 0 0 0 0 0 0 1 3 8 9 93 0 116 98 109 69 22 0
50 61 14 0 3 25 53 68 6 0 0 0 0 0 0 0 0 0 2 3 3 1 0 0 0 0 0 0 0 0 6 6 6 24 110 100 107 114 102 84 101 80
29 26 2 2 36 0 49 70 35 0 0 0 0 0 0 1 5 7 7 9 5 0 0 0 0 0 0 0 0 3 5 0 0 7 81 89 77 62 77 17 20 84
12 10 19 18 3 11 14 2 0 0 0 0 0 0 1 6 11 14 14 13 1 0 0 0 0 0 0 0 0 0 0 0 1 36 0 3 32 0 1 0 0 0
Wind_Speed
18 21 23 20 13 13 17 19 20 21 18 17 16 15 15 15 17 21 22 21 20 20 22 22 21 18 16 16 16 14 13 12 13 13 14 14 11 11 9 8 8 11
15 19 23 24 20 17 15 18 20 20 19 nan nan 15 14 18 19 21 22 22 21 22 23 22 20 18 17 17 15 14 13 13 13 13 15 14 13 12 10 10 10 12
15 17 20 22 22 21 19 18 20 19 20 17 18 16 15 18 21 22 22 23 23 23 23 21 20 19 18 18 18 16 15 15 14 14 16 15 14 12 11 12 13 13
14 14 18 20 20 22 22 20 19 20 20 18 18 18 18 20 23 25 24 25 24 24 24 22 20 18 17 18 19 18 17 16 15 15 15 15 14 13 13 12 12 13
15 15 18 21 21 22 22 20 19 nan nan 19 20 20 21 23 26 26 26 25 25 25 25 23 20 19 18 19 20 20 19 18 17 17 16 14 14 15 13 13 12 12
17 23 19 22 20 21 20 18 17 19 21 22 23 23 23 24 26 26 25 26 26 nan 25 nan nan 20 20 20 21 21 21 21 19 18 16 15 15 15 14 12 11 11
21 21 18 23 21 20 18 15 16 20 22 23 26 26 25 26 28 25 24 25 26 nan 23 nan nan nan 20 22 23 22 21 20 19 17 17 15 16 15 15 12 12 13
24 21 22 24 22 21 17 15 18 21 23 26 27 25 26 28 30 28 25 25 25 24 23 nan nan nan nan nan 23 nan nan 20 17 17 16 15 16 16 15 11 15 15
27 30 26 22 21 20 20 19 20 23 25 26 24 24 27 29 30 30 28 nan nan 25 25 nan nan nan nan nan nan nan nan 18 16 18 16 15 15 14 15 17 21 17
29 29 26 23 19 21 22 19 21 25 26 25 21 23 27 27 28 29 nan nan nan 26 nan nan nan nan nan nan nan nan nan nan nan nan nan nan 16 15 17 18 18 17
31 27 26 22 19 19 20 21 22 26 27 25 23 24 24 nan nan nan nan nan nan nan nan nan nan nan nan nan nan nan nan nan nan nan nan nan nan nan 18 18 17 17
27 26 24 24 19 15 19 21 23 23 21 21 22 22 24 nan nan nan nan nan nan nan nan nan nan nan nan nan nan nan nan nan nan nan nan nan nan nan 21 19 18 18
28 26 24 23 15 15 20 23 22 19 18 19 19 21 nan nan nan nan nan nan nan nan nan nan nan nan nan nan nan nan nan nan nan nan nan nan nan 22 23 21 21 21
26 23 21 nan 19 23 23 22 24 25 23 20 21 24 nan nan nan nan nan nan nan nan nan nan nan nan nan nan nan nan nan nan nan nan nan nan nan 24 24 25 25 25
24 22 nan 19 18 26 27 27 26 28 26 23 24 nan nan nan nan nan nan nan nan nan nan nan nan nan nan nan nan nan nan nan nan nan nan nan nan 24 26 26 26 26
24 21 nan nan 22 24 31 30 29 31 28 28 28 nan nan nan nan nan nan nan nan nan nan nan nan nan nan nan nan nan nan nan nan nan nan nan nan 24 23 25 25 25
22 21 23 nan 25 nan 33 30 28 30 nan nan nan nan nan nan nan nan nan nan nan nan nan nan nan nan nan nan nan nan nan nan nan nan nan nan nan nan 23 24 nan 25
18 nan nan nan 30 31 34 32 nan nan nan nan nan nan nan nan nan nan nan nan nan nan nan nan nan nan nan nan nan nan nan nan nan nan nan nan nan nan nan 25 nan nan
nan nan nan 26 31 nan nan nan nan nan nan nan nan nan nan nan nan nan nan nan nan nan nan nan nan nan nan nan nan nan nan nan nan nan nan nan nan nan nan nan nan nan
nan nan 19 21 nan nan nan nan nan nan nan nan nan nan nan nan nan nan nan nan nan nan nan nan nan nan nan nan nan nan nan nan nan nan nan nan nan nan nan nan nan nan
nan nan nan 22 25 28 nan nan nan nan nan nan nan nan nan nan nan nan nan nan nan nan nan nan nan nan nan nan nan nan nan nan nan nan nan nan nan nan nan nan nan nan
nan nan nan nan nan nan nan nan nan nan nan nan nan nan nan nan nan nan nan nan nan nan nan nan nan nan nan nan nan nan nan nan nan nan nan nan nan nan nan nan nan nan
nan nan nan nan nan nan nan nan nan nan nan nan nan nan nan nan nan nan nan nan nan nan nan nan nan nan nan nan nan nan nan nan nan nan nan nan 34 nan 34 nan nan nan
nan nan nan nan nan nan nan nan nan nan nan nan nan nan nan nan nan nan nan nan nan nan nan nan nan nan nan nan nan nan nan nan nan nan 32 32 33 32 32 nan 35 nan
nan nan nan nan nan nan nan nan nan nan nan nan nan nan nan nan nan nan nan nan nan nan nan nan nan nan nan nan nan nan nan nan nan nan nan nan nan nan nan nan nan nan
nan nan nan nan nan nan nan nan nan nan nan nan nan nan nan nan nan nan nan nan nan nan nan nan nan nan nan nan nan nan nan nan nan nan nan nan nan nan nan nan nan nan
Wind_Direction
244 250 249 254 263 280 287 282 277 273 264 262 262 258 256 253 249 251 248 246 245 248 246 247 247 248 253 249 249 256 259 265 268 271 272 277 281 282 281 277 272 275
250 256 254 251 254 271 284 285 282 279 270 nan nan 263 254 253 252 246 244 248 246 246 247 246 246 247 249 253 259 260 259 267 273 271 277 277 280 278 274 277 273 270
260 265 262 261 264 272 279 278 275 273 274 267 263 264 261 256 248 239 244 251 248 247 248 246 246 248 250 251 253 258 263 267 270 270 273 275 272 274 269 269 266 276
274 266 263 262 263 263 262 269 264 264 265 268 264 268 267 253 241 237 245 250 245 245 246 243 247 249 252 255 256 258 261 264 267 269 271 269 271 272 270 267 266 268
275 268 255 255 249 245 250 262 266 nan nan 264 262 266 264 252 237 233 243 245 241 241 240 242 243 248 255 258 258 259 259 263 262 266 269 268 265 266 263 265 265 268
261 257 257 262 245 242 245 258 264 261 257 259 266 263 260 249 234 234 242 242 241 nan 240 nan nan 251 261 260 259 261 260 262 265 261 266 266 263 262 259 261 261 262
265 265 278 273 259 246 251 255 259 259 262 265 265 264 256 239 229 236 247 246 244 nan 241 nan nan nan 253 255 257 260 260 261 265 265 265 264 264 264 264 257 267 258
270 268 256 264 263 260 261 264 263 265 266 267 269 262 248 232 227 236 252 255 249 246 242 nan nan nan nan nan 254 nan nan 262 265 265 261 263 262 264 273 272 264 261
269 271 262 251 261 264 266 265 269 269 267 269 267 251 235 230 229 237 251 nan nan 243 243 nan nan nan nan nan nan nan nan 260 261 262 263 260 260 266 265 262 258 257
285 282 266 251 249 260 265 269 267 267 268 264 253 235 229 228 230 239 nan nan nan 247 nan nan nan nan nan nan nan nan nan nan nan nan nan nan 263 263 263 270 275 271
285 266 259 252 233 242 263 270 265 269 267 255 232 223 227 nan nan nan nan nan nan nan nan nan nan nan nan nan nan nan nan nan nan nan nan nan nan nan 270 271 277 279
279 272 265 254 239 221 262 263 266 266 257 237 226 230 232 nan nan nan nan nan nan nan nan nan nan nan nan nan nan nan nan nan nan nan nan nan nan nan 266 263 269 276
278 266 260 260 248 243 248 257 262 258 238 220 225 235 nan nan nan nan nan nan nan nan nan nan nan nan nan nan nan nan nan nan nan nan nan nan nan 259 260 261 264 270
265 256 247 nan 229 240 244 254 248 234 227 225 237 240 nan nan nan nan nan nan nan nan nan nan nan nan nan nan nan nan nan nan nan nan nan nan nan 259 263 265 271 274
252 244 nan 233 230 244 241 229 223 227 227 233 239 nan nan nan nan nan nan nan nan nan nan nan nan nan nan nan nan nan nan nan nan nan nan nan nan 264 267 270 269 270
253 242 nan nan 233 237 242 230 210 197 215 230 236 nan nan nan nan nan nan nan nan nan nan nan nan nan nan nan nan nan nan nan nan nan nan nan nan 262 267 270 271 269
244 236 233 nan 234 nan 234 229 202 191 nan nan nan nan nan nan nan nan nan nan nan nan nan nan nan nan nan nan nan nan nan nan nan nan nan nan nan nan 268 269 nan 265
230 nan nan nan 231 232 230 205 nan nan nan nan nan nan nan nan nan nan nan nan nan nan nan nan nan nan nan nan nan nan nan nan nan nan nan nan nan nan nan 270 nan nan
nan nan nan 238 232 nan nan nan nan nan nan nan nan nan nan nan nan nan nan nan nan nan nan nan nan nan nan nan nan nan nan nan nan nan nan nan nan nan nan nan nan nan
nan nan 237 240 nan nan nan nan nan nan nan nan nan nan nan nan nan nan nan nan nan nan nan nan nan nan nan nan nan nan nan nan nan nan nan nan nan nan nan nan nan nan
nan nan nan 238 227 219 nan nan nan nan nan nan nan nan nan nan nan nan nan nan nan nan nan nan nan nan nan nan nan nan nan nan nan nan nan nan nan nan nan nan nan nan
nan nan nan nan nan nan nan nan nan nan nan nan nan nan nan nan nan nan nan nan nan nan nan nan nan nan nan nan nan nan nan nan nan nan nan nan nan nan nan nan nan nan
nan nan nan nan nan nan nan nan nan nan nan nan nan nan nan nan nan nan nan nan nan nan nan nan nan nan nan nan nan nan nan nan nan nan nan nan 251 nan 243 nan nan nan
nan nan nan nan nan nan nan nan nan nan nan nan nan nan nan nan nan nan nan nan nan nan nan nan nan nan nan nan nan nan nan nan nan nan 250 256 256 246 241 nan 235 nan
nan nan nan nan nan nan nan nan nan nan nan nan nan nan nan nan nan nan nan nan nan nan nan nan nan nan nan nan nan nan nan nan nan nan nan nan nan nan nan nan nan nan
nan nan nan nan nan nan nan nan nan nan nan nan nan nan nan nan nan nan nan nan nan nan nan nan nan nan nan nan nan nan nan nan nan nan nan nan nan nan nan nan nan nan